This is the latest recevied weather packets stored in our database for station/object N0ZJT. If no packets are shown the sender has not sent any weather packets the latest 10 day(s).
| Time | Temp. | Humidity | Pressure | Rain* | Wind** | Luminosity | Snow |
|---|---|---|---|---|---|---|---|
| 1777479290 | 12.22° C | 41% | 979.3 hPa | 0 mm | - | - | - |
| 1777478330 | 11.11° C | 43% | 979.5 hPa | 0 mm | - | - | - |
| 1777477490 | 11.11° C | 43% | 979.5 hPa | 0 mm | - | - | - |
| 1777476530 | 10.56° C | 45% | 979.3 hPa | 0 mm | - | - | - |
| 1777475690 | 10° C | 46% | 979.4 hPa | 0 mm | - | - | - |
| 1777474730 | 9.44° C | 48% | 979.4 hPa | 0 mm | - | - | - |
| 1777473890 | 9.44° C | 48% | 979.3 hPa | 0 mm | - | - | - |
| 1777472930 | 8.89° C | 46% | 979.3 hPa | 0 mm | - | - | - |
| 1777472090 | 8.89° C | 47% | 979.3 hPa | 0 mm | - | - | - |
| 1777471130 | 8.89° C | 50% | 979.3 hPa | 0 mm | - | - | - |
| 1777470290 | 8.89° C | 50% | 979.2 hPa | 0 mm | - | - | - |
| 1777469330 | 8.89° C | 57% | 979.2 hPa | 0 mm | - | - | - |
| 1777468490 | 8.33° C | 61% | 979.1 hPa | 0 mm | - | - | - |
| 1777467530 | 7.78° C | 63% | 979.2 hPa | 0 mm | - | - | - |
| 1777466690 | 7.78° C | 62% | 979.1 hPa | 0 mm | - | - | - |
| 1777465730 | 7.78° C | 61% | 979 hPa | 0 mm | - | - | - |
| 1777464890 | 7.22° C | 61% | 979 hPa | 0 mm | - | - | - |
| 1777463930 | 7.22° C | 60% | 978.9 hPa | 0 mm | - | - | - |
| 1777463090 | 7.22° C | 60% | 978.8 hPa | 0 mm | - | - | - |
| 1777462130 | 7.22° C | 60% | 978.7 hPa | 0 mm | - | - | - |
| 1777461290 | 7.22° C | 60% | 978.6 hPa | 0 mm | - | - | - |
| 1777460330 | 7.22° C | 59% | 978.5 hPa | 0 mm | - | - | - |
| 1777459490 | 7.22° C | 58% | 978.6 hPa | 0 mm | - | - | - |
| 1777458530 | 7.22° C | 58% | 978.6 hPa | 0 mm | - | - | - |
| 1777457690 | 7.22° C | 59% | 978.6 hPa | 0 mm | - | - | - |
* Rain latest hour (hover to see other rain measurements)
** Current wind speed in m/s (hover to see current wind gust speed)